Lindcove
DateTemperatureDew Point
05/07 - 08:15 PM76.7°67.1°
05/07 - 08:00 PM77.8°65.6°
05/07 - 07:45 PM79.5°63.8°
05/07 - 07:30 PM81.3°62.8°
05/07 - 07:15 PM82.9°62.2°
05/07 - 07:00 PM84.0°61.6°
05/07 - 06:45 PM84.9°61.4°
05/07 - 06:30 PM85.5°61.1°
05/07 - 06:15 PM86.2°60.3°
05/07 - 06:00 PM86.4°60.2°
05/07 - 05:45 PM86.7°60.1°
05/07 - 05:30 PM87.2°60.3°
05/07 - 05:15 PM86.7°59.7°
05/07 - 05:00 PM87.0°59.8°
05/07 - 04:45 PM86.7°59.4°
05/07 - 04:30 PM86.6°59.4°
05/07 - 04:15 PM86.1°58.5°
05/07 - 04:00 PM86.4°59.0°
05/07 - 03:45 PM86.0°58.4°
05/07 - 03:30 PM86.1°59.0°
05/07 - 03:15 PM85.4°58.8°
05/07 - 03:00 PM84.8°58.4°
05/07 - 02:45 PM84.7°58.1°
05/07 - 02:30 PM83.9°58.0°
05/07 - 02:15 PM83.7°57.9°
05/07 - 02:00 PM83.2°57.5°
05/07 - 01:45 PM83.0°57.1°
05/07 - 01:30 PM82.3°57.0°
05/07 - 01:15 PM81.6°56.6°
05/07 - 01:00 PM81.3°56.4°
05/07 - 12:45 PM80.6°56.0°
05/07 - 12:30 PM80.2°55.6°
05/07 - 12:15 PM80.4°56.2°
05/07 - 12:00 PM79.3°56.0°
05/07 - 11:45 AM78.3°55.4°
05/07 - 11:30 AM77.7°55.2°
05/07 - 11:15 AM78.1°55.1°
05/07 - 11:00 AM76.8°54.1°
05/07 - 10:45 AM76.0°54.1°
05/07 - 10:30 AM75.7°54.4°
05/07 - 10:15 AM75.1°53.8°
05/07 - 10:00 AM74.5°53.8°
05/07 - 09:45 AM73.5°54.5°
05/07 - 09:30 AM72.7°55.1°
05/07 - 09:15 AM71.7°54.7°
05/07 - 09:00 AM69.9°54.0°
05/07 - 08:45 AM69.0°54.8°
05/07 - 08:30 AM69.5°57.8°
05/07 - 08:15 AM69.6°59.4°
05/07 - 08:00 AM66.9°58.3°
05/07 - 07:45 AM65.2°58.2°
05/07 - 07:30 AM63.5°58.5°
05/07 - 07:15 AM61.3°58.6°
05/07 - 07:00 AM59.2°58.8°
05/07 - 06:45 AM56.7°56.7°
05/07 - 06:30 AM55.1°55.1°
05/07 - 06:15 AM54.2°54.1°
05/07 - 06:00 AM54.2°53.9°
05/07 - 05:45 AM55.0°54.5°
05/07 - 05:30 AM55.0°54.4°
05/07 - 05:15 AM55.6°54.9°
05/07 - 05:00 AM56.2°55.2°
05/07 - 04:45 AM55.8°54.6°
05/07 - 04:30 AM56.5°55.3°
05/07 - 04:15 AM56.1°54.9°
05/07 - 04:00 AM56.5°55.2°
05/07 - 03:45 AM56.7°55.1°
05/07 - 03:30 AM56.5°54.7°
05/07 - 03:15 AM57.1°54.8°
05/07 - 03:00 AM58.5°55.7°
05/07 - 02:45 AM58.8°56.1°
05/07 - 02:30 AM58.8°56.2°
05/07 - 02:15 AM59.1°56.2°
05/07 - 02:00 AM59.2°56.3°
05/07 - 01:45 AM58.4°55.7°
05/07 - 01:30 AM58.5°55.6°
05/07 - 01:15 AM59.3°55.9°
05/07 - 01:00 AM59.8°56.8°
05/07 - 12:45 AM59.4°56.7°
05/07 - 12:30 AM60.0°56.6°
05/07 - 12:15 AM60.5°56.7°
05/07 - 12:00 AM61.4°57.9°
05/06 - 11:45 PM59.5°57.4°
05/06 - 11:30 PM59.5°57.2°
05/06 - 11:15 PM60.9°58.6°
05/06 - 11:00 PM61.6°59.3°
05/06 - 10:45 PM61.7°59.0°
05/06 - 10:30 PM61.3°58.6°
05/06 - 10:15 PM63.4°60.0°
05/06 - 10:00 PM63.8°60.5°
05/06 - 09:45 PM65.3°62.6°
05/06 - 09:30 PM65.0°62.3°
05/06 - 09:15 PM65.1°62.2°
05/06 - 09:00 PM68.2°64.8°
05/06 - 08:45 PM68.9°64.9°
05/06 - 08:30 PM69.8°64.5°
05/06 - 08:15 PM70.7°62.9°
05/06 - 08:00 PM71.8°60.3°
05/06 - 07:45 PM72.7°57.3°
05/06 - 07:30 PM73.7°56.4°
05/06 - 07:15 PM74.9°55.8°
05/06 - 07:00 PM75.7°55.5°
05/06 - 06:45 PM76.2°54.9°
05/06 - 06:30 PM76.8°54.8°
05/06 - 06:15 PM77.1°54.4°
05/06 - 06:00 PM77.7°54.6°
05/06 - 05:45 PM78.0°54.2°
05/06 - 05:30 PM78.0°54.0°
05/06 - 05:15 PM77.7°53.3°
05/06 - 05:00 PM77.6°53.3°
05/06 - 04:45 PM77.6°52.9°
05/06 - 04:30 PM77.5°52.8°
05/06 - 04:15 PM77.4°51.9°
05/06 - 04:00 PM77.6°51.7°
05/06 - 03:45 PM77.1°52.1°
05/06 - 03:30 PM76.9°52.2°
05/06 - 03:15 PM75.9°51.5°
05/06 - 03:00 PM76.8°51.4°
05/06 - 02:45 PM75.9°51.3°
05/06 - 02:30 PM75.9°51.1°
05/06 - 02:15 PM75.0°50.3°
05/06 - 02:00 PM75.1°50.7°
05/06 - 01:45 PM74.9°51.0°
05/06 - 01:30 PM73.6°49.7°
05/06 - 01:15 PM73.4°49.8°
05/06 - 01:00 PM73.3°50.4°
05/06 - 12:45 PM72.5°50.4°
05/06 - 12:30 PM71.8°50.0°
05/06 - 12:15 PM71.7°49.8°
05/06 - 12:00 PM71.2°50.0°
05/06 - 11:45 AM70.5°49.4°
05/06 - 11:30 AM70.6°49.8°
05/06 - 11:15 AM69.5°49.5°
05/06 - 11:00 AM69.2°49.2°
05/06 - 10:45 AM69.2°49.5°
05/06 - 10:30 AM68.7°49.8°
05/06 - 10:15 AM67.9°49.7°
05/06 - 10:00 AM67.0°49.8°
05/06 - 09:45 AM66.5°49.8°
05/06 - 09:30 AM66.2°50.1°
05/06 - 09:15 AM65.3°50.1°
05/06 - 09:00 AM64.2°50.2°
05/06 - 08:45 AM63.8°51.9°
05/06 - 08:30 AM63.1°53.4°
05/06 - 08:15 AM61.6°53.6°
05/06 - 08:00 AM60.0°54.3°
05/06 - 07:45 AM58.3°56.8°
05/06 - 07:30 AM56.5°56.5°
05/06 - 07:15 AM54.1°54.1°
05/06 - 07:00 AM52.2°52.2°
05/06 - 06:45 AM50.7°50.7°
05/06 - 06:30 AM49.1°49.1°
05/06 - 06:15 AM48.5°48.5°
05/06 - 06:00 AM48.8°48.8°
05/06 - 05:45 AM48.9°48.9°
05/06 - 05:30 AM48.9°48.9°
05/06 - 05:15 AM48.8°48.8°
05/06 - 05:00 AM48.9°48.9°
05/06 - 04:45 AM49.6°49.6°
05/06 - 04:30 AM50.0°50.0°
05/06 - 04:15 AM50.0°50.0°
05/06 - 04:00 AM50.2°50.2°
05/06 - 03:45 AM50.2°50.2°
05/06 - 03:30 AM49.9°49.9°
05/06 - 03:15 AM50.5°50.5°
05/06 - 03:00 AM51.0°51.0°
05/06 - 02:45 AM50.7°50.7°
05/06 - 02:30 AM50.3°50.3°
05/06 - 02:15 AM50.9°50.9°
05/06 - 02:00 AM51.6°51.6°
05/06 - 01:45 AM51.7°51.7°
05/06 - 01:30 AM51.2°51.2°
05/06 - 01:15 AM51.5°51.5°
05/06 - 01:00 AM52.6°52.6°
05/06 - 12:45 AM53.4°53.4°
05/06 - 12:30 AM53.3°53.3°
05/06 - 12:15 AM53.5°53.5°
05/06 - 12:00 AM53.7°53.6°
05/05 - 11:45 PM53.9°53.7°
05/05 - 11:30 PM54.5°54.2°
05/05 - 11:15 PM53.9°53.5°
05/05 - 11:00 PM54.4°54.0°
05/05 - 10:45 PM55.0°54.4°
05/05 - 10:30 PM55.9°55.0°
05/05 - 10:15 PM56.7°55.5°
05/05 - 10:00 PM58.9°57.2°
05/05 - 09:45 PM59.8°57.7°
05/05 - 09:30 PM60.2°57.8°
05/05 - 09:15 PM61.5°58.7°
05/05 - 09:00 PM62.2°58.8°